Location: Ithaca
(42.4410°N, 76.4970°W)
Time: 05:29:25
(UTC-04:00)

ISS - Visible Passes

Search period start: 25 October 2014 00:00
Search period end: 03 November 2014 23:00
Orbit: 412 x 416 km, 51.6° (Epoch: 25 October)

Date Brightness Start Highest point End Pass type
(mag) Time Alt. Az. Time Alt. Az. Time Alt. Az.
25 Oct -3.3 18:50:40 10° NW 18:54:00 66° NNE 18:57:19 10° ESE visible
25 Oct -0.6 20:28:13 10° W 20:30:14 16° SW 20:30:14 16° SW visible
26 Oct -1.3 19:38:24 10° WNW 19:41:18 27° SW 19:43:41 13° S visible
27 Oct -2.3 18:48:54 10° WNW 18:52:08 48° SW 18:55:21 10° SE visible
28 Oct 0.1 19:38:26 10° WSW 19:39:03 10° SW 19:39:39 10° SW visible
29 Oct -0.3 18:47:32 10° W 18:49:55 18° SW 18:52:17 10° S visible
